This is the latest recevied weather packets stored in our database for station/object N7MLR. If no packets are shown the sender has not sent any weather packets the latest 10 day(s).
| Time | Temp. | Humidity | Pressure | Rain* | Wind** | Luminosity | Snow |
|---|---|---|---|---|---|---|---|
| 1777739792 | 19.44° C | 58% | 1022.9 hPa | 0 mm | - | 740 W/m² | - |
| 1777739489 | 20° C | 58% | 1023.1 hPa | 0 mm | - | 752 W/m² | - |
| 1777739186 | 19.44° C | 58% | 1022.9 hPa | 0 mm | - | 761 W/m² | - |
| 1777738883 | 18.33° C | 59% | 1022.9 hPa | 0 mm | - | 754 W/m² | - |
| 1777738580 | 18.33° C | 58% | 1022.5 hPa | 0 mm | - | 792 W/m² | - |
| 1777738278 | 18.89° C | 59% | 1023 hPa | 0 mm | - | 804 W/m² | - |
| 1777737976 | 17.78° C | 59% | 1022.8 hPa | 0 mm | - | 768 W/m² | - |
| 1777737674 | 17.78° C | 60% | 1022.8 hPa | 0 mm | - | 765 W/m² | - |
| 1777737372 | 18.33° C | 62% | 1022.8 hPa | 0 mm | - | 780 W/m² | - |
| 1777737069 | 17.78° C | 62% | 1022.7 hPa | 0 mm | - | 789 W/m² | - |
| 1777736764 | 17.78° C | 63% | 1022.5 hPa | 0 mm | - | 715 W/m² | - |
| 1777736136 | 17.78° C | 63% | 1022.3 hPa | 0 mm | - | 641 W/m² | - |
| 1777735834 | 17.22° C | 63% | 1022.5 hPa | 0 mm | - | 622 W/m² | - |
| 1777735531 | 17.22° C | 64% | 1022.7 hPa | 0 mm | - | 573 W/m² | - |
| 1777735228 | 17.22° C | 63% | 1022.8 hPa | 0 mm | - | 573 W/m² | - |
| 1777734925 | 17.22° C | 66% | 1022.4 hPa | 0 mm | - | 565 W/m² | - |
| 1777734622 | 17.22° C | 65% | 1022.5 hPa | 0 mm | - | 527 W/m² | - |
| 1777734320 | 16.67° C | 67% | 1022.5 hPa | 0 mm | - | 542 W/m² | - |
| 1777734016 | 16.11° C | 68% | 1022.3 hPa | 0 mm | - | 494 W/m² | - |
| 1777733712 | 16.67° C | 66% | 1022.2 hPa | 0 mm | - | 465 W/m² | - |
| 1777733409 | 16.11° C | 69% | 1022.2 hPa | 0 mm | - | 478 W/m² | - |
| 1777733105 | 16.11° C | 68% | 1022 hPa | 0 mm | - | 432 W/m² | - |
| 1777732802 | 15.56° C | 70% | 1022 hPa | 0 mm | - | 387 W/m² | - |
| 1777732499 | 15.56° C | 69% | 1022.2 hPa | 0 mm | - | 348 W/m² | - |
| 1777732197 | 15° C | 70% | 1022.1 hPa | 0 mm | - | 316 W/m² | - |
* Rain latest hour (hover to see other rain measurements)
** Current wind speed in m/s (hover to see current wind gust speed)